Saint Simons Island, GA

10:10 PM EST on December 13, 2019 (GMT -0500)
McKinnon

Weather History for KSSI - November, 2019

Change the Weather History Date:

Wednesday, November 13, 2019

  Actual Average Record
Temperature  
Mean Temperature 44 °F 62 °F  
Max Temperature 50 °F 71 °F 82 °F (2018)
Min Temperature 37 °F 54 °F 33 °F (1968)
Degree Days  
Heating Degree Days 21 4  
Month to date heating degree days 62 44  
Since 1 July heating degree days 62 74  
Cooling Degree Days 0 2  
Month to date cooling degree days 25 31  
Year to date cooling degree days 3370 2592  
Moisture  
Dew Point 36 °F    
Average Humidity 69    
Maximum Humidity 76    
Minimum Humidity 61    
Precipitation  
Precipitation 0.00 in 0.07 in 0.56 in (2001)
Month to date precipitation 0.49 0.98  
Year to date precipitation 32.95 41.31  
Snow  
Snow 0.00 in - 0.00 in ()
Month to date snowfall 0.0  
Since 1 July snowfall 0.0  
Since 1 September snowfall 0.0  
Snow Depth 0.00 in    
Sea Level Pressure  
Sea Level Pressure 30.26 in    
Wind  
Wind Speed 14 mph (North)    
Max Wind Speed 21 mph    
Max Gust Speed 29 mph    
Visibility 10 miles    
Events      
T = Trace of Precipitation, MM = Missing Value Source: NWS Daily Summary

Daily Weather History Graph

Daily Weather History Graph

Search for Another Location

Airport or City:

Astronomy

Nov. 13, 2019 Rise Set
Actual Time 6:50 AM EST 5:28 PM EST
Civil Twilight 6:25 AM EST 5:54 PM EST
Nautical Twilight 5:56 AM EST 6:23 PM EST
Astronomical Twilight 5:27 AM EST 6:51 PM EST
Moon 6:33 PM EST (11/13) 7:41 AM EST (11/13)
Length of Visible Light 11h 28m
Length of Day
10h 37m
Full, 99% of the Moon is Illuminated
Nov 13
Full
Nov 19
Last Quarter
Nov 26
New
Dec 4
First Quarter
Dec 12
Full

Hourly Weather History & Observations

Time (EST) Temp. Windchill Dew Point Humidity Pressure Visibility Wind Dir Wind Speed Gust Speed Precip Events Conditions
12:53 AM 45.0 °F 39.7 °F 35.1 °F 68% 30.14 in 10.0 mi North 10.4 mph - N/A   Partly Cloudy
1:53 AM 43.0 °F 36.4 °F 34.0 °F 71% 30.16 in 10.0 mi North 12.7 mph - N/A   Partly Cloudy
2:53 AM 42.1 °F 34.9 °F 34.0 °F 73% 30.17 in 10.0 mi North 13.8 mph - N/A   Scattered Clouds
3:00 AM 42.1 °F 34.2 °F 34.0 °F 73% 30.17 in 10.0 mi North 16.1 mph - N/A   Mostly Cloudy
3:53 AM 41.0 °F 33.9 °F 32.0 °F 70% 30.19 in 10.0 mi North 12.7 mph 23.0 mph N/A   Overcast
4:53 AM 39.0 °F 29.9 °F 30.0 °F 70% 30.21 in 10.0 mi North 17.3 mph 23.0 mph N/A   Overcast
5:53 AM 37.9 °F 28.9 °F 28.0 °F 68% 30.24 in 10.0 mi North 16.1 mph 23.0 mph N/A   Overcast
6:53 AM 37.0 °F 28.9 °F 28.0 °F 70% 30.25 in 10.0 mi North 12.7 mph - N/A   Overcast
7:53 AM 39.0 °F 32.3 °F 32.0 °F 76% 30.28 in 10.0 mi North 10.4 mph 20.7 mph N/A   Overcast
8:53 AM 39.9 °F 32.5 °F 32.0 °F 73% 30.30 in 10.0 mi North 12.7 mph 20.7 mph N/A   Overcast
9:53 AM 45.0 °F 38.5 °F 36.0 °F 71% 30.31 in 10.0 mi North 13.8 mph 23.0 mph N/A   Overcast
10:53 AM 48.0 °F - 37.0 °F 66% 30.32 in 10.0 mi NNE 19.6 mph 25.3 mph N/A   Overcast
11:53 AM 48.9 °F - 37.9 °F 66% 30.31 in 10.0 mi North 11.5 mph 21.9 mph N/A   Overcast
12:10 PM 48.9 °F - 37.9 °F 66% 30.30 in 10.0 mi NNE 16.1 mph 25.3 mph N/A   Overcast
12:24 PM 48.9 °F - 37.9 °F 66% 30.29 in 10.0 mi North 16.1 mph 23.0 mph N/A   Overcast
12:34 PM 48.0 °F - 37.0 °F 66% 30.29 in 10.0 mi North 13.8 mph 24.2 mph N/A   Overcast
12:53 PM 48.9 °F - 37.9 °F 66% 30.29 in 10.0 mi North 12.7 mph 24.2 mph N/A   Overcast
1:14 PM 48.9 °F - 37.0 °F 64% 30.28 in 10.0 mi North 16.1 mph 23.0 mph N/A   Overcast
1:53 PM 48.9 °F - 37.0 °F 64% 30.28 in 10.0 mi North 18.4 mph - N/A   Overcast
2:02 PM 50.0 °F - 37.0 °F 61% 30.27 in 10.0 mi NNE 17.3 mph 24.2 mph N/A   Overcast
2:40 PM 48.9 °F - 37.0 °F 64% 30.27 in 10.0 mi North 15.0 mph 21.9 mph N/A   Overcast
2:53 PM 48.9 °F - 37.0 °F 64% 30.27 in 10.0 mi North 19.6 mph 27.6 mph N/A   Overcast
3:37 PM 48.9 °F - 37.0 °F 64% 30.27 in 10.0 mi North 17.3 mph 24.2 mph N/A   Overcast
3:53 PM 48.9 °F - 37.0 °F 64% 30.27 in 10.0 mi NNE 13.8 mph - N/A   Overcast
4:50 PM 48.2 °F - 37.4 °F 66% 30.25 in 10.0 mi North 11.5 mph 20.7 mph N/A   Mostly Cloudy
4:53 PM 48.0 °F - 37.9 °F 68% 30.25 in 10.0 mi North 15.0 mph - N/A   Mostly Cloudy
5:29 PM 48.0 °F - 39.0 °F 71% 30.25 in 10.0 mi North 11.5 mph - N/A   Overcast
5:36 PM 48.0 °F - 39.0 °F 71% 30.25 in 10.0 mi North 11.5 mph - N/A   Overcast
5:53 PM 48.0 °F - 39.0 °F 71% 30.25 in 10.0 mi North 9.2 mph - N/A   Mostly Cloudy
6:19 PM 48.0 °F - 39.9 °F 74% 30.24 in 10.0 mi North 11.5 mph - N/A   Mostly Cloudy
6:53 PM 48.0 °F - 39.9 °F 74% 30.26 in 10.0 mi North 9.2 mph - N/A   Mostly Cloudy
8:53 PM 48.0 °F - 37.0 °F 66% 30.27 in 10.0 mi North 11.5 mph - N/A   Overcast
9:53 PM 48.0 °F - 36.0 °F 63% 30.27 in 10.0 mi North 11.5 mph - N/A   Overcast
10:53 PM 48.9 °F - 36.0 °F 61% 30.27 in 10.0 mi North 13.8 mph - N/A   Overcast
11:53 PM 48.0 °F - 35.1 °F 61% 30.25 in 10.0 mi North 12.7 mph 23.0 mph N/A   Overcast